This demonstration page uses our WeatherBlox Daily Observations layout. Learn more.

Left ArrowRight Arrow

34.16533, -84.80231

Hourly Observations for July 16, 2016

Temp ( °F °C ) Dew Point ( °F °C ) Humidity (%) Winds ( mph kmh ) Pressure ( in mb ) Visibility ( mi km ) Precip ( " mm )
12:53 am 00:53 Clear 73 22.8 70 21.1 90 90 Calm 30.02 1017 10 16 0.00 0.00
1:53 am 01:53 Mostly Clear 71 21.7 69 20.6 94 94 Calm 30.01 1016 10 16 0.00 0.00
2:53 am 02:53 Clear 71 21.7 69 20.6 94 94 Calm 30.00 1016 10 16 0.00 0.00
3:53 am 03:53 Clear 70 21.1 68 20 93 93 Calm 30.01 1016 10 16 0.00 0.00
4:53 am 04:53 Clear 69 20.6 67 19.4 93 93 Calm 30.01 1016 10 16 0.00 0.00
5:53 am 05:53 Mostly Cloudy 69 20.6 67 19.4 93 93 Calm 30.01 1016 10 16 0.00 0.00
6:53 am 06:53 Sunny 70 21.1 68 20 93 93 Calm 30.03 1017 10 16 0.00 0.00
7:53 am 07:53 Sunny 73 22.8 69 20.6 87 87 Calm 30.05 1018 10 16 0.00 0.00
8:53 am 08:53 Sunny 78 25.6 69 20.6 74 74 Calm 30.07 1018 10 16 0.00 0.00
9:53 am 09:53 Sunny 81 27.2 70 21.1 69 69 VRB 5 7 30.09 1019 10 16 0.00 0.00
10:53 am 10:53 Sunny 85 29.4 70 21.1 61 61 N 3 6 30.08 1019 10 16 0.00 0.00
11:53 am 11:53 Mostly Sunny 86 30 70 21.1 59 59 VRB 3 6 30.08 1019 10 16 0.00 0.00
12:53 pm 12:53 Sunny 88 31.1 69 20.6 54 54 VRB 3 6 30.06 1018 10 16 0.00 0.00
1:53 pm 13:53 Partly Cloudy 90 32.2 68 20 48 48 VRB 5 7 30.05 1018 10 16 0.00 0.00
2:53 pm 14:53 Mostly Cloudy 88 31.1 70 21.1 55 55 SSE 6 9 30.03 1017 10 16 0.00 0.00
3:26 pm 15:26 Mostly Cloudy with Nearby Thunderstorms 88 31.1 69 20.6 54 54 SSE 3 6 30.00 1016 10 16 0.00 0.00
3:42 pm 15:42 Cloudy with Light Rain 86 30 72 22.2 63 63 S 3 6 30.00 1016 10 16 0.00 0.03
3:53 pm 15:53 Cloudy 86 30 73 22.8 65 65 Calm 30.01 1016 10 16 0.00 0.03
4:00 pm 16:00 Cloudy with Nearby Thunderstorms 85 29.4 73 22.8 68 68 Calm 30.00 1016 8 13 0.00 0.03
4:07 pm 16:07 Cloudy with Thunderstorms 84 28.9 71 21.7 65 65 Calm 30.00 1016 10 16 0.00 0.03
4:28 pm 16:28 Cloudy with Strong Thunderstorms 77 25 72 22.2 85 85 SSW 12 19 30.00 1016 2 3 0.10 2.54
4:47 pm 16:47 Cloudy with Thunderstorms 72 22 66 19 83 83 SSE 10 17 30.03 1017 3 5 0.27 6.86
4:53 pm 16:53 Cloudy with Thunderstorms 72 22.2 68 20 87 87 SE 7 11 30.03 1017 8 13 0.28 7.11
5:06 pm 17:06 Partly Cloudy with Nearby Thunderstorms 77 25 71 21.7 82 82 SSE 7 11 30.00 1016 10 16 0.00 0.03
5:37 pm 17:37 Sunny with Thunderstorms 80 26.7 71 21.7 74 74 S 10 17 30.00 1016 10 16 0.00 0.03
5:53 pm 17:53 Sunny 81 27.2 69 20.6 67 67 S 7 11 30.02 1017 10 16 0.00 0.03
6:53 pm 18:53 Mostly Sunny 78 25.6 73 22.8 85 85 Calm 30.05 1018 10 16 0.00 0.00
7:53 pm 19:53 Mostly Cloudy 79 26.1 72 22.2 79 79 VRB 3 6 30.06 1018 10 16 0.00 0.00
8:04 pm 20:04 Mostly Cloudy with Thunderstorms 78 25.6 72 22.2 82 82 Calm 30.06 1018 6 10 0.02 0.51
8:19 pm 20:19 Cloudy with Rain 75 23.9 71 21.7 88 88 SE 6 9 30.09 1019 2 3 0.11 2.79
8:23 pm 20:23 Cloudy with Nearby Thunderstorms 74 23.3 71 21.7 91 91 SE 7 11 30.09 1019 3 5 0.11 2.79
8:43 pm 20:43 Mostly Cloudy 73 22.8 70 21.1 90 90 SSE 10 17 30.09 1019 10 16 0.11 2.79
8:53 pm 20:53 Partly Cloudy 73 22.8 69 20.6 87 87 S 6 9 30.08 1019 10 16 0.11 2.79
9:53 pm 21:53 Clear 73 22.8 70 21.1 90 90 NNE 5 7 30.08 1019 10 16 0.00 0.00
10:53 pm 22:53 Clear 70 21.1 69 20.6 97 97 SE 3 6 30.09 1019 10 16 0.00 0.00
11:53 pm 23:53 Clear 70 21.1 69 20.6 97 97 Calm 30.12 1020 10 16 0.00 0.00

Powered by AerisWeather